Dewpoint
69 71 71 71 74 74 73 73 73 70 73 72 72 71 69 68 66 73 71 70 71 71 72 71 71 71 71 70 70 71 70 70 66 67 69 69 69 69 67 68 72 72 71
69 69 71 72 73 71 69 70 73 73 71 74 72 69 67 64 70 71 72 72 72 71 71 72 70 71 70 72 71 71 70 68 66 64 68 69 68 69 69 71 73 74 71
71 71 69 69 67 69 70 70 71 70 72 72 73 72 71 72 72 72 72 71 71 70 70 70 70 71 70 70 70 69 68 69 67 67 65 66 67 68 70 71 71 72 74
68 67 67 66 64 68 69 69 69 69 69 69 70 68 67 66 68 69 68 67 68 68 69 68 65 64 65 68 67 64 65 64 64 64 61 60 60 61 67 68 68 70 70
66 65 64 64 64 66 68 67 66 67 68 69 68 69 67 66 66 65 66 67 66 66 66 65 65 66 67 62 60 63 63 62 61 60 59 58 58 60 59 60 61 63 64
66 65 65 64 65 66 66 67 66 68 67 68 68 67 67 66 62 61 60 61 62 62 62 63 63 64 64 65 64 64 61 59 58 60 60 60 59 61 62 62 62 61 60
65 64 64 63 64 66 66 66 66 67 67 68 68 67 64 61 59 58 59 56 61 62 62 62 61 62 63 62 63 62 62 62 62 60 59 60 61 63 64 64 64 64 63
65 65 64 64 64 65 65 66 65 66 65 66 65 64 64 58 57 56 58 58 60 58 60 59 59 60 61 58 59 60 60 59 57 56 57 60 62 62 61 62 63 63 63
66 65 65 64 65 66 65 65 65 65 64 63 63 62 63 55 55 55 55 56 56 57 58 57 58 59 57 57 57 57 57 57 58 58 59 60 60 59 58 57 54 60 60
65 66 67 67 66 66 64 63 63 63 63 61 62 62 61 55 55 54 55 55 56 55 54 56 57 54 55 54 53 54 54 53 55 56 57 55 56 56 59 58 57 57 58
63 63 64 64 64 64 63 62 62 62 62 62 62 62 63 61 55 54 54 56 55 55 56 57 55 55 53 53 53 52 51 53 56 54 54 55 55 56 56 56 58 59 57
62 62 62 62 61 62 61 60 60 60 59 59 60 60 61 63 57 55 54 54 55 56 56 54 51 50 48 48 49 50 52 54 52 54 55 54 54 54 55 55 58 61 62
62 61 60 59 59 59 59 57 58 60 56 51 55 58 58 61 58 55 55 55 55 55 51 51 51 49 48 48 49 51 52 52 54 55 55 53 53 54 57 57 58 57 62
61 60 59 58 57 56 58 58 50 48 45 46 50 51 56 55 55 54 53 52 53 52 50 49 51 51 51 51 51 52 55 54 53 51 50 49 49 52 52 54 55 54 54
57 57 57 53 58 56 54 52 49 48 46 45 47 48 53 53 52 50 49 49 49 48 48 48 48 49 49 51 52 50 51 51 50 50 49 48 49 51 51 53 53 54 55
54 51 47 55 55 53 54 49 50 49 46 45 45 49 51 50 48 48 47 45 45 44 48 47 48 50 50 50 50 50 50 51 51 51 50 50 50 51 52 52 54 53 52
53 53 46 50 49 49 50 51 50 49 47 46 45 46 45 48 45 44 43 43 42 46 46 48 49 51 49 49 49 51 50 51 52 50 49 48 49 49 51 52 52 52 52
44 45 45 51 49 50 48 48 48 49 50 49 46 45 44 44 44 44 45 45 49 47 48 49 48 49 49 49 49 49 50 50 48 48 48 48 50 51 51 51 51 51 51
53 49 48 46 46 48 49 49 47 48 48 49 51 46 45 44 43 42 44 48 49 50 48 47 49 48 49 49 49 49 48 47 46 47 47 48 48 49 49 49 50 49 50
52 53 49 49 48 49 48 48 48 48 48 47 48 48 51 48 48 48 49 50 51 48 47 48 48 49 49 48 48 49 48 48 48 48 48 48 48 48 47 47 48 48 48
53 53 53 49 48 50 49 49 48 49 49 49 49 48 48 46 47 48 49 48 48 49 49 49 48 48 48 48 48 48 48 48 47 47 48 47 45 44 45 46 46 47 48
52 49 53 52 52 52 52 52 51 51 50 49 49 49 45 47 49 50 49 48 50 49 49 48 48 47 47 47 48 47 47 47 46 47 46 45 44 44 44 45 45 46 46
47 47 50 51 51 50 49 49 50 49 51 52 51 50 49 49 50 49 49 49 49 49 49 49 48 47 47 48 49 49 47 46 46 47 46 45 44 43 43 42 42 44 45
46 50 49 49 49 48 48 49 49 48 50 51 50 51 51 51 49 48 48 49 50 50 49 49 49 47 47 46 46 46 46 46 46 46 46 44 43 42 41 40 40 41 44
49 49 48 48 48 47 48 48 50 51 53 53 51 52 49 49 49 47 48 48 49 49 49 49 49 48 47 46 46 45 43 36 40 41 42 42 41 41 41 40 39 42 44
48 48 48 50 50 48 47 48 50 51 51 50 50 51 49 50 47 47 47 45 48 48 48 48 49 48 48 48 47 44 40 37 37 34 39 41 41 41 40 38 39 42 43
Lifted_Index
-6 -6 -6 -7 -7 -7 -7 -6 -6 -6 -6 -5 -5 -5 -4 -3 -3 -4 -5 -5 -6 -6 -6 -6 -5 -5 -4 -4 -4 -3 -3 -4 -4 -4 -4 -4 -4 -4 -5 -5 -5 -5 -5
-6 -6 -7 -7 -7 -6 -5 -5 -5 -6 -6 -6 -5 -5 -4 -3 -3 -4 -5 -5 -5 -5 -6 -6 -5 -5 -5 -5 -5 -4 -4 -4 -4 -4 -4 -4 -4 -4 -5 -5 -5 -6 -6
-6 -7 -7 -7 -6 -5 -4 -3 -3 -4 -4 -5 -5 -5 -5 -5 -4 -4 -5 -5 -5 -5 -5 -5 -5 -5 -5 -5 -5 -5 -4 -4 -4 -4 -4 -3 -2 -3 -4 -5 -5 -5 -5
-6 -7 -6 -6 -5 -3 -3 -2 -2 -1 -2 -3 -4 -5 -5 -5 -4 -4 -4 -4 -4 -4 -4 -4 -4 -4 -4 -4 -4 -3 -3 -2 -2 -2 -2 -1 -0 -1 -2 -3 -3 -4 -4
-6 -6 -6 -4 -3 -2 -2 -1 -0 0 -0 -2 -3 -3 -3 -3 -2 -2 -2 -2 -2 -2 -2 -2 -2 -2 -2 -2 -2 -1 -1 -0 -0 -0 -0 0 0 0 -0 -1 -1 -1 -2
-5 -5 -5 -3 -2 -1 -1 -1 0 0 -1 -2 -2 -2 -1 -1 -1 -1 -0 -0 -0 -0 0 0 0 0 0 0 0 0 1 1 1 1 1 0 0 0 0 -0 -1 -1 -1
-4 -4 -4 -3 -2 -2 -1 -0 -0 -0 -1 -2 -1 -1 -1 -0 -0 0 0 1 1 1 2 2 2 2 2 2 2 1 1 2 3 2 2 1 1 0 0 -0 -1 -1 -1
-4 -4 -3 -3 -2 -2 -1 -0 -0 -0 -1 -1 -0 0 -0 0 1 1 2 2 2 2 3 3 3 3 3 4 3 3 3 4 4 4 4 3 3 2 2 1 1 1 0
-4 -4 -3 -2 -2 -1 -1 -0 -0 -0 -0 0 0 1 1 1 2 3 4 5 5 4 4 4 4 4 4 5 4 4 5 5 6 5 5 5 5 4 4 4 3 3 2
-3 -3 -3 -2 -2 -1 -1 -0 0 0 1 1 1 1 1 2 2 4 5 6 6 6 5 5 5 5 5 5 5 6 6 7 7 6 6 5 5 5 5 5 4 4 4
-2 -1 -1 -1 -1 -1 -0 0 1 1 2 2 2 2 1 2 2 3 5 6 6 6 6 6 6 6 6 7 7 8 8 8 7 6 5 5 5 5 4 4 4 4 4
-0 0 1 1 0 1 1 1 2 2 2 3 3 2 2 2 2 3 4 5 5 6 6 7 7 8 9 9 9 9 8 7 6 5 5 4 4 4 3 3 3 3 3
1 1 2 2 2 2 2 2 2 2 3 4 3 3 3 2 2 3 4 5 6 6 7 9 9 10 9 9 9 8 6 6 6 5 5 5 4 4 3 3 3 3 3
1 2 2 2 3 3 3 3 4 4 4 5 5 5 4 4 4 4 5 6 7 8 9 9 9 9 8 7 7 6 6 6 6 7 7 7 6 5 4 4 4 4 4
2 3 3 3 3 3 4 4 5 5 5 6 6 6 6 6 6 7 7 8 9 9 9 9 8 8 7 7 7 7 7 8 8 8 8 8 8 7 6 5 4 4 4
3 4 4 4 4 4 4 5 5 5 5 6 6 6 6 7 7 8 8 9 9 8 8 8 8 7 7 8 8 8 8 8 8 9 9 9 9 8 7 6 5 4 4
4 4 5 4 4 5 5 5 5 5 5 5 6 6 6 7 7 7 7 7 7 7 7 7 7 7 8 8 8 8 8 8 9 9 9 9 9 8 7 7 6 5 5
5 5 5 5 5 5 5 5 5 5 5 5 5 6 6 6 6 6 6 6 6 6 6 6 7 7 7 8 8 8 8 9 9 9 9 9 9 8 8 7 7 6 6
4 4 4 5 5 5 5 5 5 5 5 5 5 5 5 5 4 4 4 4 4 4 5 5 6 6 7 8 8 8 8 9 9 9 9 9 9 8 8 7 7 7 6
3 3 4 4 5 5 5 5 5 5 5 5 5 5 4 4 3 3 3 3 3 3 4 5 5 6 7 7 8 8 8 8 8 8 9 8 8 8 8 7 7 6 6
2 3 3 3 4 4 4 4 4 4 4 4 4 4 3 3 3 2 2 1 2 2 3 4 5 6 7 7 8 8 8 8 8 8 8 8 8 8 7 6 6 5 5
3 3 3 3 3 3 3 3 3 3 3 3 3 3 3 3 2 2 1 1 1 2 3 4 6 7 7 8 8 8 8 8 8 8 8 8 7 7 7 6 6 5 5
4 4 3 3 3 3 4 4 4 3 3 3 3 3 3 3 2 2 1 1 2 3 3 4 5 6 7 7 8 8 8 8 8 8 8 8 7 7 7 6 6 6 5
4 3 3 3 3 4 4 4 4 3 3 3 3 3 3 3 3 2 2 2 3 3 3 4 5 6 6 7 7 7 8 8 9 9 9 8 8 8 7 7 7 7 7
3 3 3 3 3 3 3 3 3 2 2 2 2 3 3 3 2 2 3 3 3 3 3 4 4 5 5 6 6 6 7 8 8 9 9 9 9 9 9 8 8 8 8
3 3 3 3 2 3 3 2 2 2 2 2 2 2 2 2 2 3 3 3 3 3 3 4 4 4 5 5 5 6 6 6 7 8 9 9 10 10 9 9 9 8 8